sat.trackr.live / text

‹ back to catalog

GAOFEN-9 01

NORAD 40894 · 2015-047A

PAYLOAD ACTIVE UNKNOWN

§ Identity

Operator
Country
PRC
Launch date
2015-09-14
Launch site
JSC
Launch vehicle
Mass (kg)
RCS (m²)
3.68

Purposes: earth_obs

External: N2YO · Heavens-Above · Gunter

§ Orbital elements

Epoch: 2026-09-20T04:49:27.456672Z

Period
97.10 min
Inclination
97.6217°
Eccentricity
0.0027091
Mean motion
14.83025692 rev/d
Perigee alt
600.8 km
Apogee alt
638.7 km
Semi-major
6,997.9 km
B*
6.6684e-5
RAAN
294.5556°
Arg perigee
185.0417°
Mean anomaly
175.0529°
Rev number
59,427

§ Raw data

GAOFEN-9 011 40894U 15047A   26263.20101223  .00000494  00000+0  66684-4 0  99922 40894  97.6217 294.5556 0027091 185.0417 175.0529 14.83025692594276

JSON: /api/v1/satellites/40894 · /tle

For live sub-satellite position, see the globe view (requires WebGL).

§ Visibility from observer

Set your observer location to see the next 7 days of passes ≥ 10°. The values pass through the URL so the page stays shareable.

No JS? Fill the form by hand. The geolocation button needs JavaScript.